IBE03GR LEMD-KMIA

Flight info

Callsign IBE03GR
Flight time N/A
Altitude 34000
Route BARDI DCT INKIT DCT EPOPO/N0475F360 DCT ARMED/M083F360 DCT 42N020W 40N030W 38N040W/M083F380 33N050W 30N060W/M083F400 27N070W DCT MILLE/N0473F400 DCT ZQA BR49V NICKO VIICE2
Aircraft A333/H-SDE3GHIJ2J3J5M1RVWXY/LB2D1

Departure

Time N/A
Airport Adolfo Suárez Madrid–Barajas Airport (LEMD)

Arrival

Time 2026-05-06 09:07
Airport Miami International Airport (KMIA)
Time Latitude Longitude Altitude Speed Heading
2026-05-06 01:59 40.62138 -27.37498 36401 ft 436 kts 260°
2026-05-06 01:59 40.61283 -27.41324 36401 ft 437 kts 260°
2026-05-06 01:59 40.59565 -27.48992 36619 ft 435 kts 260°
2026-05-06 02:00 40.58708 -27.52799 36851 ft 433 kts 260°
2026-05-06 02:00 40.57854 -27.56592 37014 ft 432 kts 260°
2026-05-06 02:00 40.57000 -27.60382 37148 ft 432 kts 260°
2026-05-06 02:00 40.56146 -27.64166 37272 ft 432 kts 260°
2026-05-06 02:01 40.55290 -27.67955 37401 ft 432 kts 260°
2026-05-06 02:01 40.54433 -27.71736 37530 ft 432 kts 260°
2026-05-06 02:01 40.53575 -27.75517 37651 ft 432 kts 260°
2026-05-06 02:01 40.52716 -27.79298 37776 ft 431 kts 259°
2026-05-06 02:02 40.51857 -27.83064 37957 ft 429 kts 259°
2026-05-06 02:02 40.51001 -27.86814 38087 ft 429 kts 259°
2026-05-06 02:02 40.50144 -27.90569 38196 ft 429 kts 259°
2026-05-06 02:02 40.49286 -27.94319 38303 ft 429 kts 259°
2026-05-06 02:03 40.47566 -28.01818 38404 ft 429 kts 259°
2026-05-06 02:03 40.45840 -28.09318 38395 ft 428 kts 259°
2026-05-06 02:04 40.44116 -28.16777 38412 ft 426 kts 259°
2026-05-06 02:04 40.42393 -28.24212 38416 ft 426 kts 259°
2026-05-06 02:05 40.40666 -28.31641 38410 ft 426 kts 259°
2026-05-06 02:05 40.38933 -28.39072 38409 ft 426 kts 259°
2026-05-06 02:06 40.37197 -28.46492 38410 ft 426 kts 259°
2026-05-06 02:06 40.35456 -28.53910 38408 ft 426 kts 259°
2026-05-06 02:07 40.33708 -28.61333 38410 ft 426 kts 259°
2026-05-06 02:07 40.31956 -28.68745 38398 ft 426 kts 259°
2026-05-06 02:08 40.30212 -28.76099 38413 ft 424 kts 259°
2026-05-06 02:08 40.28461 -28.83462 38409 ft 423 kts 258°
2026-05-06 02:09 40.27001 -28.89584 38410 ft 423 kts 258°
2026-05-06 02:09 40.25242 -28.96942 38398 ft 423 kts 258°
2026-05-06 02:10 40.23479 -29.04284 38408 ft 422 kts 258°
2026-05-06 02:10 40.21716 -29.11610 38409 ft 422 kts 258°
2026-05-06 02:11 40.19948 -29.18932 38408 ft 422 kts 258°
2026-05-06 02:11 40.18177 -29.26249 38398 ft 422 kts 258°
2026-05-06 02:12 40.16400 -29.33559 38409 ft 421 kts 258°
2026-05-06 02:12 40.14622 -29.40854 38409 ft 421 kts 258°
2026-05-06 02:13 40.12838 -29.48153 38407 ft 421 kts 258°
2026-05-06 02:13 40.11049 -29.55446 38398 ft 421 kts 258°
2026-05-06 02:14 40.09271 -29.62677 38407 ft 421 kts 258°
2026-05-06 02:14 40.07476 -29.69951 38406 ft 421 kts 258°
2026-05-06 02:15 40.05675 -29.77228 38408 ft 421 kts 258°
2026-05-06 02:15 40.03870 -29.84496 38397 ft 421 kts 257°
2026-05-06 02:16 40.02063 -29.91757 38410 ft 421 kts 257°
2026-05-06 02:16 40.00284 -29.99032 38409 ft 419 kts 261°
2026-05-06 02:17 39.99012 -30.06414 38407 ft 417 kts 263°
2026-05-06 02:17 39.97866 -30.13813 38404 ft 416 kts 263°
2026-05-06 02:18 39.96740 -30.21222 38406 ft 416 kts 263°
2026-05-06 02:18 39.95606 -30.28619 38406 ft 416 kts 263°
2026-05-06 02:19 39.94467 -30.35968 38406 ft 416 kts 263°
2026-05-06 02:19 39.93314 -30.43363 38401 ft 416 kts 263°
2026-05-06 02:20 39.91574 -30.54448 38406 ft 416 kts 263°
2026-05-06 02:21 39.90409 -30.61838 38403 ft 416 kts 263°
2026-05-06 02:21 39.89241 -30.69211 38385 ft 416 kts 263°
2026-05-06 02:22 39.88067 -30.76593 38403 ft 416 kts 263°
2026-05-06 02:22 39.86888 -30.83968 38400 ft 416 kts 263°
2026-05-06 02:23 39.85706 -30.91339 38406 ft 416 kts 263°
2026-05-06 02:23 39.84517 -30.98715 38407 ft 416 kts 262°
2026-05-06 02:24 39.83326 -31.06076 38403 ft 416 kts 262°
2026-05-06 02:24 39.82129 -31.13437 38403 ft 416 kts 262°
2026-05-06 02:25 39.80928 -31.20801 38402 ft 416 kts 262°
2026-05-06 02:25 39.79720 -31.28169 38403 ft 416 kts 262°
2026-05-06 02:26 39.78517 -31.35477 38402 ft 416 kts 262°
2026-05-06 02:26 39.77299 -31.42847 38401 ft 416 kts 262°
2026-05-06 02:27 39.76079 -31.50200 38402 ft 416 kts 262°
2026-05-06 02:27 39.74853 -31.57555 38404 ft 416 kts 262°
2026-05-06 02:28 39.73624 -31.64899 38400 ft 416 kts 262°
2026-05-06 02:28 39.72390 -31.72244 38400 ft 416 kts 262°
2026-05-06 02:29 39.71151 -31.79586 38402 ft 416 kts 262°
2026-05-06 02:29 39.69908 -31.86928 38399 ft 416 kts 262°
2026-05-06 02:30 39.68660 -31.94263 38402 ft 416 kts 262°
2026-05-06 02:30 39.67407 -32.01594 38404 ft 416 kts 262°
2026-05-06 02:31 39.66151 -32.08922 38396 ft 416 kts 261°
2026-05-06 02:31 39.64889 -32.16250 38401 ft 416 kts 261°
2026-05-06 02:32 39.63622 -32.23583 38401 ft 416 kts 261°
2026-05-06 02:32 39.62359 -32.30859 38400 ft 416 kts 261°
2026-05-06 02:33 39.61083 -32.38180 38396 ft 416 kts 261°
2026-05-06 02:33 39.60652 -32.40648 38405 ft 416 kts 261°
2026-05-06 02:34 39.58516 -32.52826 38402 ft 417 kts 261°
2026-05-06 02:34 39.57224 -32.60154 38400 ft 417 kts 261°
2026-05-06 02:35 39.55926 -32.67484 38398 ft 417 kts 261°
2026-05-06 02:35 39.54626 -32.74797 38398 ft 417 kts 261°
2026-05-06 02:36 39.53320 -32.82119 38397 ft 417 kts 261°
2026-05-06 02:36 39.52009 -32.89440 38381 ft 417 kts 261°
2026-05-06 02:37 39.50695 -32.96750 38395 ft 417 kts 261°
2026-05-06 02:37 39.49377 -33.04052 38394 ft 417 kts 261°
2026-05-06 02:38 39.48053 -33.11356 38393 ft 417 kts 261°
2026-05-06 02:38 39.46726 -33.18653 38391 ft 417 kts 261°
2026-05-06 02:39 39.45394 -33.25949 38393 ft 416 kts 261°
2026-05-06 02:39 39.44067 -33.33193 38386 ft 416 kts 260°
2026-05-06 02:40 39.42726 -33.40480 38384 ft 417 kts 260°
2026-05-06 02:40 39.41380 -33.47769 38373 ft 416 kts 260°
2026-05-06 02:41 39.40035 -33.55022 38389 ft 415 kts 260°
2026-05-06 02:41 39.38686 -33.62275 38381 ft 415 kts 260°
2026-05-06 02:42 39.37333 -33.69523 38382 ft 415 kts 260°
2026-05-06 02:42 39.35976 -33.76763 38394 ft 414 kts 260°
2026-05-06 02:43 39.34615 -33.83999 38376 ft 415 kts 260°
2026-05-06 02:43 39.33247 -33.91243 38368 ft 415 kts 260°
2026-05-06 02:44 39.31875 -33.98484 38368 ft 415 kts 260°
2026-05-06 02:44 39.30498 -34.05725 38379 ft 415 kts 260°
2026-05-06 02:45 39.29115 -34.12966 38376 ft 415 kts 260°
2026-05-06 02:45 39.27738 -34.20157 38381 ft 415 kts 260°
2026-05-06 02:46 39.26339 -34.27430 38373 ft 414 kts 260°
2026-05-06 02:46 39.24951 -34.34616 38367 ft 412 kts 260°
2026-05-06 02:47 39.23562 -34.41795 38373 ft 412 kts 260°
2026-05-06 02:47 39.22178 -34.48917 38361 ft 412 kts 260°
2026-05-06 02:48 39.20780 -34.56081 38373 ft 411 kts 260°
2026-05-06 02:48 39.19382 -34.63226 38369 ft 411 kts 260°
2026-05-06 02:49 39.17980 -34.70363 38376 ft 411 kts 260°
2026-05-06 02:49 39.16572 -34.77506 38372 ft 411 kts 260°
2026-05-06 02:50 39.15163 -34.84628 38378 ft 410 kts 260°
2026-05-06 02:50 39.13750 -34.91748 38374 ft 410 kts 260°
2026-05-06 02:51 39.12333 -34.98866 38368 ft 410 kts 260°
2026-05-06 02:51 39.10912 -35.05974 38368 ft 410 kts 260°
2026-05-06 02:52 39.09484 -35.13092 38364 ft 410 kts 260°
2026-05-06 02:52 39.08065 -35.20148 38372 ft 410 kts 260°
2026-05-06 02:53 39.06631 -35.27247 38372 ft 410 kts 261°
2026-05-06 02:53 39.05195 -35.34331 38366 ft 409 kts 261°
2026-05-06 02:54 39.03758 -35.41399 38367 ft 409 kts 261°
2026-05-06 02:54 39.02317 -35.48466 38363 ft 409 kts 260°
2026-05-06 02:55 39.00871 -35.55529 38361 ft 408 kts 261°
2026-05-06 02:55 38.99425 -35.62571 38362 ft 407 kts 261°
2026-05-06 02:56 38.97975 -35.69607 38367 ft 407 kts 261°
2026-05-06 02:56 38.96523 -35.76636 38353 ft 407 kts 261°
2026-05-06 02:57 38.95069 -35.83643 38360 ft 405 kts 261°
2026-05-06 02:57 38.93614 -35.90630 38360 ft 404 kts 261°
2026-05-06 02:58 38.92157 -35.97612 38360 ft 405 kts 261°
2026-05-06 02:58 38.90944 -36.03407 38356 ft 404 kts 261°
2026-05-06 02:59 38.89484 -36.10355 38364 ft 403 kts 261°
2026-05-06 02:59 38.87785 -36.18417 38359 ft 402 kts 261°
2026-05-06 03:00 38.86558 -36.24223 38361 ft 402 kts 260°
2026-05-06 03:00 38.85089 -36.31145 38361 ft 402 kts 261°
2026-05-06 03:01 38.83620 -36.38053 38373 ft 401 kts 260°
2026-05-06 03:01 38.82160 -36.44897 38360 ft 400 kts 260°
2026-05-06 03:02 38.80686 -36.51785 38358 ft 400 kts 260°
2026-05-06 03:02 38.79209 -36.58664 38356 ft 400 kts 260°
2026-05-06 03:03 38.77727 -36.65542 38360 ft 400 kts 260°
2026-05-06 03:03 38.76241 -36.72416 38357 ft 400 kts 260°
2026-05-06 03:04 38.74751 -36.79290 38355 ft 400 kts 260°
2026-05-06 03:04 38.73258 -36.86156 38355 ft 400 kts 260°
2026-05-06 03:05 38.71763 -36.93008 38355 ft 399 kts 260°
2026-05-06 03:05 38.70266 -36.99852 38353 ft 399 kts 260°
2026-05-06 03:06 38.68763 -37.06701 38355 ft 399 kts 260°
2026-05-06 03:06 38.67257 -37.13535 38353 ft 398 kts 261°
2026-05-06 03:07 38.65752 -37.20347 38353 ft 397 kts 261°
2026-05-06 03:07 38.64258 -37.27097 38355 ft 397 kts 261°
2026-05-06 03:08 38.62747 -37.33898 38356 ft 397 kts 260°
2026-05-06 03:08 38.61233 -37.40694 38353 ft 397 kts 261°
2026-05-06 03:09 38.59717 -37.47472 38354 ft 396 kts 261°
2026-05-06 03:09 38.58200 -37.54241 38354 ft 396 kts 261°
2026-05-06 03:10 38.56679 -37.61008 38360 ft 396 kts 261°
2026-05-06 03:10 38.55154 -37.67770 38365 ft 395 kts 261°
2026-05-06 03:11 38.53635 -37.74468 38359 ft 391 kts 261°
2026-05-06 03:11 38.52124 -37.81131 38358 ft 390 kts 261°
2026-05-06 03:12 38.50614 -37.87777 38354 ft 390 kts 261°
2026-05-06 03:12 38.49098 -37.94427 38355 ft 390 kts 261°
2026-05-06 03:13 38.47577 -38.01071 38360 ft 389 kts 261°
2026-05-06 03:13 38.46056 -38.07694 38358 ft 389 kts 261°
2026-05-06 03:14 38.44531 -38.14323 38356 ft 389 kts 261°
2026-05-06 03:14 38.43003 -38.20945 38355 ft 389 kts 261°
2026-05-06 03:15 38.41470 -38.27565 38352 ft 389 kts 261°
2026-05-06 03:15 38.39943 -38.34143 38353 ft 389 kts 261°
2026-05-06 03:16 38.38404 -38.40753 38365 ft 389 kts 261°
2026-05-06 03:16 38.36861 -38.47364 38350 ft 389 kts 261°
2026-05-06 03:17 38.35314 -38.53974 38350 ft 389 kts 261°
2026-05-06 03:17 38.33763 -38.60578 38353 ft 389 kts 261°
2026-05-06 03:18 38.32208 -38.67183 38358 ft 389 kts 261°
2026-05-06 03:18 38.30651 -38.73776 38355 ft 389 kts 261°
2026-05-06 03:19 38.29089 -38.80375 38343 ft 389 kts 261°
2026-05-06 03:19 38.27525 -38.86961 38353 ft 388 kts 261°
2026-05-06 03:20 38.25176 -38.96818 38351 ft 387 kts 261°
2026-05-06 03:20 38.23608 -39.03374 38348 ft 387 kts 261°
2026-05-06 03:21 38.22039 -39.09922 38345 ft 387 kts 261°
2026-05-06 03:21 38.20467 -39.16459 38352 ft 386 kts 261°
2026-05-06 03:22 38.18893 -39.22988 38351 ft 386 kts 261°
2026-05-06 03:22 38.17329 -39.29463 38352 ft 386 kts 261°
2026-05-06 03:23 38.15747 -39.35987 38352 ft 386 kts 261°
2026-05-06 03:23 38.14163 -39.42506 38349 ft 386 kts 261°
2026-05-06 03:24 38.12575 -39.49023 38350 ft 386 kts 261°
2026-05-06 03:24 38.10996 -39.55486 38353 ft 386 kts 261°
2026-05-06 03:25 38.09400 -39.62000 38338 ft 386 kts 261°
2026-05-06 03:25 38.07803 -39.68500 38351 ft 385 kts 261°
2026-05-06 03:26 38.06205 -39.74986 38349 ft 385 kts 260°
2026-05-06 03:26 38.04603 -39.81472 38351 ft 385 kts 260°
2026-05-06 03:27 38.03000 -39.87948 38351 ft 385 kts 260°
2026-05-06 03:27 38.01390 -39.94434 38349 ft 385 kts 260°
2026-05-06 03:28 37.99538 -40.00834 38349 ft 392 kts 253°
2026-05-06 03:28 37.97034 -40.07013 38349 ft 395 kts 251°
2026-05-06 03:29 37.94393 -40.13136 38349 ft 396 kts 250°
2026-05-06 03:29 37.91731 -40.19245 38349 ft 396 kts 250°
2026-05-06 03:30 37.89078 -40.25354 38346 ft 396 kts 250°
2026-05-06 03:30 37.86432 -40.31459 38349 ft 396 kts 250°
2026-05-06 03:31 37.83786 -40.37561 38343 ft 396 kts 250°
2026-05-06 03:31 37.81136 -40.43661 38346 ft 396 kts 249°
2026-05-06 03:32 37.78476 -40.49769 38346 ft 396 kts 249°
2026-05-06 03:32 37.75815 -40.55868 38346 ft 396 kts 249°
2026-05-06 03:33 37.73151 -40.61964 38346 ft 396 kts 249°
2026-05-06 03:33 37.70500 -40.68016 38347 ft 397 kts 249°
2026-05-06 03:34 37.67828 -40.74105 38346 ft 397 kts 249°
2026-05-06 03:34 37.65151 -40.80194 38337 ft 397 kts 249°
2026-05-06 03:35 37.62472 -40.86274 38347 ft 396 kts 249°
2026-05-06 03:35 37.59792 -40.92348 38343 ft 396 kts 249°
2026-05-06 03:36 37.57109 -40.98417 38346 ft 396 kts 249°
2026-05-06 03:36 37.54424 -41.04479 38351 ft 396 kts 249°
2026-05-06 03:37 37.51731 -41.10549 38344 ft 396 kts 249°
2026-05-06 03:37 37.49038 -41.16606 38348 ft 396 kts 248°
2026-05-06 03:38 37.46340 -41.22662 38333 ft 397 kts 248°
2026-05-06 03:38 37.43639 -41.28716 38336 ft 397 kts 248°
2026-05-06 03:39 37.40931 -41.34772 38335 ft 397 kts 248°
2026-05-06 03:39 37.38220 -41.40823 38354 ft 397 kts 248°
2026-05-06 03:40 37.35507 -41.46868 38347 ft 397 kts 248°
2026-05-06 03:40 37.32803 -41.52883 38345 ft 398 kts 248°
2026-05-06 03:41 37.30080 -41.58928 38346 ft 398 kts 248°
2026-05-06 03:41 37.27352 -41.64974 38344 ft 398 kts 248°
2026-05-06 03:42 37.24617 -41.71023 38344 ft 398 kts 248°
2026-05-06 03:42 37.21884 -41.77057 38344 ft 398 kts 248°
2026-05-06 03:43 37.19147 -41.83089 38344 ft 398 kts 248°
2026-05-06 03:43 37.16405 -41.89121 38343 ft 398 kts 248°
2026-05-06 03:44 37.13661 -41.95147 38344 ft 398 kts 248°
2026-05-06 03:44 37.10910 -42.01175 38344 ft 398 kts 248°
2026-05-06 03:45 37.08175 -42.07156 38341 ft 398 kts 247°
2026-05-06 03:45 37.05419 -42.13177 38339 ft 399 kts 247°
2026-05-06 03:46 37.02653 -42.19206 38339 ft 399 kts 247°
2026-05-06 03:46 36.99884 -42.25229 38338 ft 399 kts 247°
2026-05-06 03:47 36.97113 -42.31246 38336 ft 400 kts 246°
2026-05-06 03:47 36.94325 -42.37291 38336 ft 402 kts 246°
2026-05-06 03:48 36.92003 -42.42316 38336 ft 402 kts 246°
2026-05-06 03:48 36.89203 -42.48365 38336 ft 402 kts 246°
2026-05-06 03:49 36.86397 -42.54418 38340 ft 404 kts 245°
2026-05-06 03:49 36.83566 -42.60515 38336 ft 407 kts 245°
2026-05-06 03:50 36.80723 -42.66620 38333 ft 407 kts 245°
2026-05-06 03:50 36.77878 -42.72718 38333 ft 407 kts 245°
2026-05-06 03:51 36.75028 -42.78821 38332 ft 408 kts 245°
2026-05-06 03:51 36.72170 -42.84927 38332 ft 408 kts 245°
2026-05-06 03:52 36.69310 -42.91027 38328 ft 408 kts 245°
2026-05-06 03:52 36.66441 -42.97136 38336 ft 409 kts 245°
2026-05-06 03:53 36.63564 -43.03250 38333 ft 409 kts 245°
2026-05-06 03:53 36.60683 -43.09360 38333 ft 409 kts 245°
2026-05-06 03:54 36.57798 -43.15468 38330 ft 410 kts 245°
2026-05-06 03:54 36.54922 -43.21549 38330 ft 411 kts 245°
2026-05-06 03:55 36.52021 -43.27668 38327 ft 411 kts 245°
2026-05-06 03:55 36.49117 -43.33782 38327 ft 411 kts 245°
2026-05-06 03:56 36.46204 -43.39907 38328 ft 412 kts 245°
2026-05-06 03:56 36.43284 -43.46032 38325 ft 412 kts 245°
2026-05-06 03:57 36.40364 -43.52147 38309 ft 412 kts 244°
2026-05-06 03:57 36.37436 -43.58269 38322 ft 412 kts 244°
2026-05-06 03:58 36.34506 -43.64382 38322 ft 412 kts 244°
2026-05-06 03:58 36.31572 -43.70491 38322 ft 412 kts 244°
2026-05-06 03:59 36.28636 -43.76596 38322 ft 412 kts 244°
2026-05-06 03:59 36.25696 -43.82698 38320 ft 412 kts 244°
2026-05-06 04:00 36.22753 -43.88793 38322 ft 412 kts 244°
2026-05-06 04:00 36.19810 -43.94880 38319 ft 411 kts 244°
2026-05-06 04:01 36.16890 -44.00905 38320 ft 410 kts 244°
2026-05-06 04:01 36.13948 -44.06967 38320 ft 410 kts 244°
2026-05-06 04:02 36.11006 -44.13020 38327 ft 410 kts 244°
2026-05-06 04:02 36.08072 -44.19041 38309 ft 408 kts 243°
2026-05-06 04:03 36.05138 -44.25054 38320 ft 408 kts 243°
2026-05-06 04:03 36.02205 -44.31055 38317 ft 408 kts 243°
2026-05-06 04:04 35.99269 -44.37051 38317 ft 407 kts 243°
2026-05-06 04:04 35.96337 -44.43029 38320 ft 407 kts 243°
2026-05-06 04:05 35.93400 -44.49006 38304 ft 407 kts 243°
2026-05-06 04:05 35.90467 -44.54965 38312 ft 406 kts 243°
2026-05-06 04:06 35.87553 -44.60875 38316 ft 406 kts 243°
2026-05-06 04:06 35.84618 -44.66817 38317 ft 406 kts 243°
2026-05-06 04:07 35.81680 -44.72754 38309 ft 405 kts 243°
2026-05-06 04:07 35.78742 -44.78681 38308 ft 405 kts 243°
2026-05-06 04:08 35.75803 -44.84600 38299 ft 405 kts 243°
2026-05-06 04:08 35.72862 -44.90516 38302 ft 405 kts 242°
2026-05-06 04:09 35.69919 -44.96423 38306 ft 405 kts 242°
2026-05-06 04:09 35.66972 -45.02325 38304 ft 405 kts 242°
2026-05-06 04:10 35.64024 -45.08223 38299 ft 405 kts 242°
2026-05-06 04:10 35.61070 -45.14121 38301 ft 405 kts 242°
2026-05-06 04:11 35.58112 -45.20019 38302 ft 405 kts 242°
2026-05-06 04:11 35.55151 -45.25911 38295 ft 405 kts 242°
2026-05-06 04:12 35.52183 -45.31807 38301 ft 406 kts 242°
2026-05-06 04:12 35.49212 -45.37699 38301 ft 406 kts 242°
2026-05-06 04:13 35.46236 -45.43591 38285 ft 406 kts 242°
2026-05-06 04:13 35.43251 -45.49491 38298 ft 408 kts 242°
2026-05-06 04:14 35.40275 -45.55364 38298 ft 408 kts 242°
2026-05-06 04:14 35.37277 -45.61268 38298 ft 407 kts 242°
2026-05-06 04:15 35.34282 -45.67157 38301 ft 407 kts 242°
2026-05-06 04:15 35.31288 -45.73035 38301 ft 407 kts 242°
2026-05-06 04:16 35.28291 -45.78909 38302 ft 407 kts 242°
2026-05-06 04:16 35.25293 -45.84774 38295 ft 407 kts 242°
2026-05-06 04:17 35.22288 -45.90645 38295 ft 407 kts 242°
2026-05-06 04:17 35.19279 -45.96512 38295 ft 407 kts 242°
2026-05-06 04:18 35.16267 -46.02375 38291 ft 407 kts 242°
2026-05-06 04:18 35.13247 -46.08244 38292 ft 408 kts 242°
2026-05-06 04:19 35.10222 -46.14113 38290 ft 408 kts 242°
2026-05-06 04:19 35.07196 -46.19973 38280 ft 408 kts 241°
2026-05-06 04:20 35.04166 -46.25832 38290 ft 408 kts 241°
2026-05-06 04:20 35.01150 -46.31654 38289 ft 409 kts 241°
2026-05-06 04:21 34.98111 -46.37510 38281 ft 409 kts 241°
2026-05-06 04:21 34.95070 -46.43363 38287 ft 409 kts 241°
2026-05-06 04:22 34.92024 -46.49212 38287 ft 409 kts 241°
2026-05-06 04:23 34.87447 -46.57986 38291 ft 409 kts 241°
2026-05-06 04:23 34.84395 -46.63822 38287 ft 408 kts 241°
2026-05-06 04:24 34.81346 -46.69646 38287 ft 408 kts 241°
2026-05-06 04:24 34.78291 -46.75470 38284 ft 408 kts 241°
2026-05-06 04:25 34.75235 -46.81287 38286 ft 408 kts 241°
2026-05-06 04:25 34.72170 -46.87112 38287 ft 409 kts 241°
2026-05-06 04:26 34.69106 -46.92924 38290 ft 409 kts 241°
2026-05-06 04:26 34.66036 -46.98738 38294 ft 409 kts 241°
2026-05-06 04:27 34.62969 -47.04538 38284 ft 408 kts 241°
2026-05-06 04:27 34.59904 -47.10324 38287 ft 407 kts 241°
2026-05-06 04:28 34.56834 -47.16110 38272 ft 407 kts 240°
2026-05-06 04:28 34.53786 -47.21847 38286 ft 407 kts 240°
2026-05-06 04:29 34.50717 -47.27611 38287 ft 407 kts 240°
2026-05-06 04:29 34.47644 -47.33375 38283 ft 407 kts 240°
2026-05-06 04:30 34.44571 -47.39131 38287 ft 407 kts 240°
2026-05-06 04:30 34.41490 -47.44891 38287 ft 407 kts 240°
2026-05-06 04:31 34.38410 -47.50639 38285 ft 407 kts 240°
2026-05-06 04:31 34.35327 -47.56386 38285 ft 407 kts 240°
2026-05-06 04:32 34.32240 -47.62130 38288 ft 407 kts 240°
2026-05-06 04:32 34.29151 -47.67867 38284 ft 407 kts 240°
2026-05-06 04:33 34.26061 -47.73597 38287 ft 407 kts 240°
2026-05-06 04:33 34.22969 -47.79323 38285 ft 407 kts 240°
2026-05-06 04:34 34.19874 -47.85046 38287 ft 407 kts 240°
2026-05-06 04:34 34.16775 -47.90764 38284 ft 407 kts 240°
2026-05-06 04:35 34.13674 -47.96480 38269 ft 407 kts 240°
2026-05-06 04:35 34.10591 -48.02153 38296 ft 407 kts 240°
2026-05-06 04:36 34.07481 -48.07867 38281 ft 407 kts 240°
2026-05-06 04:36 34.04372 -48.13569 38281 ft 407 kts 240°
2026-05-06 04:37 34.01255 -48.19275 38283 ft 407 kts 239°
2026-05-06 04:37 33.98140 -48.24970 38282 ft 407 kts 239°
2026-05-06 04:38 33.95022 -48.30663 38280 ft 407 kts 239°
2026-05-06 04:38 33.91900 -48.36352 38268 ft 407 kts 239°
2026-05-06 04:39 33.89306 -48.41075 38269 ft 407 kts 239°
2026-05-06 04:39 33.86188 -48.46740 38276 ft 406 kts 239°
2026-05-06 04:40 33.83070 -48.52399 38278 ft 405 kts 239°
2026-05-06 04:40 33.79950 -48.58051 38285 ft 405 kts 239°
2026-05-06 04:41 33.76831 -48.63693 38286 ft 405 kts 239°
2026-05-06 04:41 33.73710 -48.69329 38271 ft 405 kts 239°
2026-05-06 04:42 33.70589 -48.74958 38276 ft 405 kts 239°
2026-05-06 04:42 33.67465 -48.80582 38280 ft 405 kts 239°
2026-05-06 04:43 33.64340 -48.86200 38276 ft 405 kts 239°
2026-05-06 04:43 33.61234 -48.91776 38282 ft 404 kts 239°
2026-05-06 04:44 33.58105 -48.97384 38276 ft 404 kts 239°
2026-05-06 04:44 33.54973 -49.02990 38276 ft 405 kts 238°
2026-05-06 04:45 33.51833 -49.08601 38288 ft 405 kts 238°
2026-05-06 04:45 33.48693 -49.14201 38276 ft 404 kts 238°
2026-05-06 04:46 33.45557 -49.19788 38272 ft 404 kts 238°
2026-05-06 04:46 33.42415 -49.25377 38276 ft 405 kts 238°
2026-05-06 04:47 33.39264 -49.30972 38292 ft 405 kts 238°
2026-05-06 04:47 33.36118 -49.36550 38272 ft 404 kts 238°
2026-05-06 04:48 33.32974 -49.42117 38269 ft 404 kts 238°
2026-05-06 04:48 33.29816 -49.47700 38274 ft 406 kts 238°
2026-05-06 04:49 33.26651 -49.53287 38286 ft 406 kts 238°
2026-05-06 04:49 33.23490 -49.58858 38270 ft 404 kts 238°
2026-05-06 04:50 33.20335 -49.64409 38271 ft 404 kts 238°
2026-05-06 04:50 33.17177 -49.69959 38266 ft 404 kts 238°
2026-05-06 04:51 33.14018 -49.75502 38280 ft 404 kts 238°
2026-05-06 04:51 33.10861 -49.81033 38269 ft 403 kts 238°
2026-05-06 04:52 33.07702 -49.86561 38265 ft 403 kts 237°
2026-05-06 04:52 33.04558 -49.92052 38263 ft 404 kts 237°
2026-05-06 04:53 33.01426 -49.97601 38275 ft 403 kts 240°
2026-05-06 04:53 32.99120 -50.03647 38270 ft 401 kts 251°
2026-05-06 04:54 32.97418 -50.09984 38267 ft 402 kts 252°
2026-05-06 04:54 32.95827 -50.16371 38266 ft 403 kts 253°
2026-05-06 04:55 32.94235 -50.22764 38270 ft 402 kts 252°
2026-05-06 04:55 32.92623 -50.29140 38268 ft 402 kts 252°
2026-05-06 04:56 32.91000 -50.35507 38262 ft 402 kts 252°
2026-05-06 04:56 32.89371 -50.41878 38261 ft 403 kts 252°
2026-05-06 04:57 32.87738 -50.48249 38264 ft 402 kts 252°
2026-05-06 04:57 32.86114 -50.54573 38264 ft 402 kts 252°
2026-05-06 04:58 32.84478 -50.60930 38264 ft 402 kts 252°
2026-05-06 04:58 32.82840 -50.67282 38264 ft 402 kts 252°
2026-05-06 04:59 32.81196 -50.73640 38258 ft 402 kts 252°
2026-05-06 04:59 32.79548 -50.80000 38260 ft 402 kts 252°
2026-05-06 05:00 32.77897 -50.86354 38261 ft 402 kts 252°
2026-05-06 05:00 32.76243 -50.92703 38262 ft 402 kts 252°
2026-05-06 05:01 32.74588 -50.99049 38259 ft 402 kts 252°
2026-05-06 05:01 32.72928 -51.05394 38244 ft 402 kts 251°
2026-05-06 05:02 32.71265 -51.11739 38258 ft 402 kts 251°
2026-05-06 05:02 32.69598 -51.18084 38255 ft 402 kts 251°
2026-05-06 05:03 32.67929 -51.24422 38258 ft 402 kts 251°
2026-05-06 05:03 32.66265 -51.30723 38258 ft 402 kts 251°
2026-05-06 05:04 32.64589 -51.37057 38254 ft 402 kts 251°
2026-05-06 05:04 32.62911 -51.43387 38251 ft 402 kts 251°
2026-05-06 05:05 32.61229 -51.49716 38248 ft 402 kts 251°
2026-05-06 05:05 32.59543 -51.56046 38250 ft 402 kts 251°
2026-05-06 05:06 32.57854 -51.62370 38251 ft 402 kts 251°
2026-05-06 05:06 32.56163 -51.68693 38252 ft 403 kts 251°
2026-05-06 05:07 32.54466 -51.75021 38244 ft 403 kts 251°
2026-05-06 05:07 32.52766 -51.81344 38272 ft 402 kts 251°
2026-05-06 05:08 32.51063 -51.87665 38245 ft 403 kts 251°
2026-05-06 05:08 32.49355 -51.93993 38249 ft 403 kts 251°
2026-05-06 05:09 32.47644 -52.00318 38247 ft 403 kts 251°
2026-05-06 05:09 32.45928 -52.06647 38234 ft 404 kts 251°
2026-05-06 05:10 32.44208 -52.12974 38244 ft 404 kts 251°
2026-05-06 05:10 32.42486 -52.19295 38245 ft 404 kts 251°
2026-05-06 05:11 32.40759 -52.25621 38244 ft 404 kts 251°
2026-05-06 05:11 32.39030 -52.31939 38242 ft 405 kts 251°
2026-05-06 05:12 32.37301 -52.38245 38238 ft 406 kts 251°
2026-05-06 05:12 32.35555 -52.44598 38236 ft 406 kts 251°
2026-05-06 05:13 32.33811 -52.50933 38237 ft 405 kts 251°
2026-05-06 05:13 32.32063 -52.57265 38240 ft 406 kts 251°
2026-05-06 05:14 32.30304 -52.63621 38238 ft 407 kts 251°
2026-05-06 05:14 32.28542 -52.69979 38234 ft 407 kts 251°
2026-05-06 05:15 32.26776 -52.76333 38234 ft 407 kts 251°
2026-05-06 05:15 32.25006 -52.82690 38231 ft 408 kts 251°
2026-05-06 05:16 32.23229 -52.89057 38235 ft 408 kts 251°
2026-05-06 05:16 32.21460 -52.95383 38232 ft 408 kts 251°
2026-05-06 05:17 32.19677 -53.01744 38247 ft 408 kts 251°
2026-05-06 05:17 32.17888 -53.08114 38232 ft 409 kts 251°
2026-05-06 05:18 32.16094 -53.14486 38224 ft 409 kts 250°
2026-05-06 05:18 32.14302 -53.20839 38226 ft 408 kts 250°
2026-05-06 05:19 32.12507 -53.27187 38233 ft 408 kts 250°
2026-05-06 05:19 32.10705 -53.33547 38228 ft 409 kts 250°
2026-05-06 05:20 32.08894 -53.39923 38228 ft 410 kts 250°
2026-05-06 05:20 32.07083 -53.46289 38215 ft 409 kts 250°
2026-05-06 05:21 32.05272 -53.52642 38235 ft 408 kts 250°
2026-05-06 05:21 32.03463 -53.58971 38230 ft 407 kts 250°
2026-05-06 05:22 32.01650 -53.65298 38220 ft 407 kts 250°
2026-05-06 05:22 31.99836 -53.71620 38221 ft 407 kts 250°
2026-05-06 05:23 31.98017 -53.77944 38226 ft 408 kts 250°
2026-05-06 05:23 31.95278 -53.87443 38218 ft 407 kts 250°
2026-05-06 05:24 31.93453 -53.93756 38218 ft 407 kts 249°
2026-05-06 05:24 31.91626 -54.00059 38237 ft 407 kts 250°
2026-05-06 05:25 31.89805 -54.06329 38224 ft 408 kts 249°
2026-05-06 05:25 31.87965 -54.12652 38220 ft 408 kts 249°
2026-05-06 05:26 31.86123 -54.18970 38207 ft 408 kts 249°
2026-05-06 05:26 31.84282 -54.25272 38229 ft 407 kts 249°
2026-05-06 05:27 31.82438 -54.31570 38214 ft 408 kts 249°
2026-05-06 05:27 31.80588 -54.37874 38217 ft 408 kts 249°
2026-05-06 05:28 31.78733 -54.44184 38217 ft 408 kts 249°
2026-05-06 05:28 31.76877 -54.50482 38230 ft 408 kts 249°
2026-05-06 05:29 31.75016 -54.56785 38209 ft 409 kts 249°
2026-05-06 05:29 31.73466 -54.62026 38213 ft 409 kts 249°
2026-05-06 05:30 31.71597 -54.68330 38213 ft 408 kts 249°
2026-05-06 05:30 31.69727 -54.74627 38213 ft 408 kts 249°
2026-05-06 05:31 31.67850 -54.80936 38210 ft 410 kts 249°
2026-05-06 05:31 31.65967 -54.87250 38207 ft 410 kts 249°
2026-05-06 05:32 31.64079 -54.93569 38197 ft 410 kts 249°
2026-05-06 05:32 31.62192 -54.99870 38204 ft 409 kts 249°
2026-05-06 05:33 31.60301 -55.06171 38203 ft 410 kts 249°
2026-05-06 05:33 31.58400 -55.12494 38202 ft 411 kts 249°
2026-05-06 05:34 31.56495 -55.18818 38201 ft 411 kts 249°
2026-05-06 05:34 31.54587 -55.25140 38200 ft 411 kts 249°
2026-05-06 05:35 31.52675 -55.31460 38195 ft 412 kts 249°
2026-05-06 05:35 31.50758 -55.37785 38197 ft 412 kts 249°
2026-05-06 05:36 31.48838 -55.44107 38197 ft 412 kts 248°
2026-05-06 05:36 31.46914 -55.50426 38197 ft 412 kts 248°
2026-05-06 05:37 31.44999 -55.56707 38197 ft 412 kts 248°
2026-05-06 05:37 31.43064 -55.63038 38193 ft 413 kts 248°
2026-05-06 05:38 31.41128 -55.69363 38189 ft 413 kts 248°
2026-05-06 05:38 31.39189 -55.75683 38192 ft 412 kts 248°
2026-05-06 05:39 31.37245 -55.82005 38193 ft 413 kts 248°
2026-05-06 05:39 31.35296 -55.88330 38189 ft 413 kts 248°
2026-05-06 05:40 31.33343 -55.94658 38187 ft 414 kts 248°
2026-05-06 05:40 31.31386 -56.00985 38187 ft 414 kts 248°
2026-05-06 05:41 31.29426 -56.07313 38182 ft 413 kts 248°
2026-05-06 05:41 31.27466 -56.13624 38185 ft 413 kts 248°
2026-05-06 05:42 31.25517 -56.19886 38183 ft 413 kts 248°
2026-05-06 05:42 31.23553 -56.26188 38182 ft 413 kts 248°
2026-05-06 05:43 31.21585 -56.32487 38190 ft 413 kts 248°
2026-05-06 05:43 31.19611 -56.38791 38181 ft 414 kts 248°
2026-05-06 05:44 31.17632 -56.45103 38177 ft 414 kts 248°
2026-05-06 05:44 31.15649 -56.51415 38179 ft 414 kts 248°
2026-05-06 05:45 31.13663 -56.57721 38184 ft 414 kts 248°
2026-05-06 05:45 31.11674 -56.64026 38176 ft 414 kts 248°
2026-05-06 05:46 31.09681 -56.70332 38174 ft 414 kts 248°
2026-05-06 05:46 31.07684 -56.76637 38173 ft 414 kts 248°
2026-05-06 05:47 31.05687 -56.82933 38172 ft 414 kts 247°
2026-05-06 05:47 31.03682 -56.89238 38173 ft 415 kts 247°
2026-05-06 05:48 31.01674 -56.95540 38170 ft 415 kts 247°
2026-05-06 05:48 30.99663 -57.01842 38171 ft 415 kts 247°
2026-05-06 05:49 30.97648 -57.08143 38171 ft 415 kts 247°
2026-05-06 05:49 30.95631 -57.14438 38165 ft 414 kts 247°
2026-05-06 05:50 30.93625 -57.20684 38160 ft 414 kts 247°
2026-05-06 05:50 30.91600 -57.26980 38160 ft 415 kts 247°
2026-05-06 05:51 30.89569 -57.33281 38160 ft 416 kts 247°
2026-05-06 05:51 30.87537 -57.39576 38162 ft 416 kts 247°
2026-05-06 05:52 30.85503 -57.45863 38156 ft 415 kts 247°
2026-05-06 05:52 30.83468 -57.52140 38154 ft 414 kts 247°
2026-05-06 05:53 30.81430 -57.58416 38144 ft 414 kts 247°
2026-05-06 05:53 30.79387 -57.64693 38155 ft 415 kts 247°
2026-05-06 05:54 30.77339 -57.70976 38151 ft 415 kts 246°
2026-05-06 05:54 30.75288 -57.77255 38151 ft 415 kts 246°
2026-05-06 05:55 30.73236 -57.83525 38148 ft 415 kts 246°
2026-05-06 05:55 30.71180 -57.89797 38148 ft 415 kts 246°
2026-05-06 05:56 30.69121 -57.96064 38144 ft 414 kts 246°
2026-05-06 05:56 30.67067 -58.02308 38143 ft 414 kts 246°
2026-05-06 05:57 30.65002 -58.08569 38143 ft 415 kts 246°
2026-05-06 05:57 30.62948 -58.14787 38140 ft 415 kts 246°
2026-05-06 05:58 30.60878 -58.21042 38155 ft 415 kts 246°
2026-05-06 05:58 30.58811 -58.27276 38140 ft 413 kts 246°
2026-05-06 05:59 30.56748 -58.33486 38140 ft 412 kts 246°
2026-05-06 05:59 30.54682 -58.39691 38134 ft 413 kts 246°
2026-05-06 06:00 30.52608 -58.45912 38140 ft 414 kts 246°
2026-05-06 06:00 30.50530 -58.52134 38140 ft 413 kts 246°
2026-05-06 06:01 30.48452 -58.58342 38138 ft 413 kts 246°
2026-05-06 06:01 30.46369 -58.64555 38134 ft 414 kts 246°
2026-05-06 06:02 30.44282 -58.70768 38132 ft 414 kts 246°
2026-05-06 06:02 30.42192 -58.76978 38132 ft 414 kts 246°
2026-05-06 06:03 30.40096 -58.83193 38127 ft 415 kts 246°
2026-05-06 06:03 30.37994 -58.89419 38127 ft 415 kts 246°
2026-05-06 06:04 30.35901 -58.95605 38130 ft 415 kts 246°
2026-05-06 06:04 30.33793 -59.01824 38132 ft 415 kts 246°
2026-05-06 06:05 30.31683 -59.08036 38123 ft 414 kts 246°
2026-05-06 06:05 30.29578 -59.14224 38124 ft 413 kts 246°
2026-05-06 06:06 30.27471 -59.20406 38122 ft 413 kts 246°
2026-05-06 06:06 30.25356 -59.26598 38124 ft 414 kts 246°
2026-05-06 06:07 30.23236 -59.32796 38134 ft 414 kts 246°
2026-05-06 06:07 30.21112 -59.38995 38118 ft 414 kts 246°
2026-05-06 06:08 30.18988 -59.45180 38119 ft 414 kts 246°
2026-05-06 06:08 30.16861 -59.51365 38119 ft 414 kts 246°
2026-05-06 06:09 30.14730 -59.57551 38119 ft 414 kts 246°
2026-05-06 06:09 30.12597 -59.63729 38115 ft 414 kts 245°
2026-05-06 06:10 30.10462 -59.69905 38116 ft 414 kts 245°
2026-05-06 06:10 30.08325 -59.76075 38116 ft 414 kts 245°
2026-05-06 06:11 30.06200 -59.82197 38113 ft 414 kts 245°
2026-05-06 06:11 30.04059 -59.88356 38113 ft 414 kts 245°
2026-05-06 06:12 30.01914 -59.94516 38110 ft 412 kts 245°
2026-05-06 06:12 29.99881 -60.00694 38106 ft 413 kts 249°
2026-05-06 06:13 29.98188 -60.07027 38108 ft 414 kts 250°
2026-05-06 06:13 29.96561 -60.13388 38108 ft 414 kts 250°
2026-05-06 06:14 29.94939 -60.19758 38114 ft 413 kts 250°
2026-05-06 06:14 29.93316 -60.26099 38105 ft 412 kts 250°
2026-05-06 06:15 29.91685 -60.32431 38100 ft 412 kts 250°
2026-05-06 06:15 29.90050 -60.38761 38099 ft 412 kts 250°
2026-05-06 06:16 29.88412 -60.45090 38095 ft 412 kts 250°
2026-05-06 06:16 29.86773 -60.51409 38100 ft 411 kts 249°
2026-05-06 06:17 29.85132 -60.57722 38101 ft 411 kts 249°
2026-05-06 06:17 29.83768 -60.62960 38104 ft 411 kts 249°
2026-05-06 06:18 29.82122 -60.69266 38098 ft 411 kts 249°
2026-05-06 06:18 29.80475 -60.75566 38127 ft 411 kts 249°
2026-05-06 06:19 29.78828 -60.81853 38090 ft 409 kts 249°
2026-05-06 06:19 29.77180 -60.88127 38092 ft 409 kts 249°
2026-05-06 06:20 29.75532 -60.94390 38104 ft 409 kts 249°
2026-05-06 06:20 29.73879 -61.00657 38091 ft 409 kts 249°
2026-05-06 06:21 29.72225 -61.06917 38093 ft 408 kts 248°
2026-05-06 06:21 29.70575 -61.13149 38094 ft 406 kts 248°
2026-05-06 06:22 29.68936 -61.19326 38097 ft 406 kts 248°
2026-05-06 06:22 29.67284 -61.25532 38096 ft 406 kts 248°
2026-05-06 06:23 29.65629 -61.31742 38094 ft 406 kts 248°
2026-05-06 06:23 29.63975 -61.37938 38094 ft 405 kts 248°
2026-05-06 06:24 29.62323 -61.44112 38099 ft 404 kts 248°
2026-05-06 06:24 29.60669 -61.50279 38072 ft 404 kts 248°
2026-05-06 06:25 29.59011 -61.56445 38098 ft 404 kts 248°
2026-05-06 06:26 29.56518 -61.65699 38098 ft 404 kts 248°
2026-05-06 06:26 29.54854 -61.71863 38097 ft 404 kts 248°
2026-05-06 06:27 29.53188 -61.78020 38096 ft 404 kts 248°
2026-05-06 06:27 29.51516 -61.84185 38097 ft 404 kts 247°
2026-05-06 06:28 29.49844 -61.90339 38097 ft 404 kts 247°
2026-05-06 06:28 29.48169 -61.96492 38098 ft 403 kts 247°
2026-05-06 06:29 29.46497 -62.02620 38093 ft 402 kts 247°
2026-05-06 06:29 29.44831 -62.08712 38099 ft 403 kts 247°
2026-05-06 06:30 29.43152 -62.14840 38097 ft 403 kts 247°
2026-05-06 06:30 29.41470 -62.20969 38102 ft 403 kts 247°
2026-05-06 06:31 29.39787 -62.27090 38099 ft 402 kts 247°
2026-05-06 06:31 29.38106 -62.33193 38100 ft 401 kts 247°
2026-05-06 06:32 29.36424 -62.39281 38102 ft 401 kts 247°
2026-05-06 06:32 29.34739 -62.45371 38102 ft 401 kts 247°
2026-05-06 06:33 29.33053 -62.51454 38098 ft 401 kts 247°
2026-05-06 06:33 29.31361 -62.57545 38102 ft 401 kts 247°
2026-05-06 06:34 29.29666 -62.63634 38105 ft 401 kts 247°
2026-05-06 06:34 29.27970 -62.69716 38105 ft 401 kts 247°
2026-05-06 06:35 29.26271 -62.75800 38105 ft 401 kts 247°
2026-05-06 06:35 29.24567 -62.81885 38105 ft 401 kts 247°
2026-05-06 06:36 29.22864 -62.87959 38110 ft 400 kts 247°
2026-05-06 06:36 29.21173 -62.93976 38111 ft 400 kts 246°
2026-05-06 06:37 29.19468 -63.00032 38114 ft 400 kts 246°
2026-05-06 06:37 29.17758 -63.06089 38104 ft 401 kts 246°
2026-05-06 06:38 29.16027 -63.12210 38105 ft 403 kts 246°
2026-05-06 06:38 29.14302 -63.18302 38100 ft 402 kts 246°
2026-05-06 06:39 29.12580 -63.24378 38109 ft 401 kts 246°
2026-05-06 06:39 29.10854 -63.30448 38118 ft 401 kts 246°
2026-05-06 06:40 29.09136 -63.36478 38120 ft 401 kts 246°
2026-05-06 06:40 29.07404 -63.42548 38103 ft 401 kts 246°
2026-05-06 06:41 29.05668 -63.48617 38114 ft 402 kts 246°
2026-05-06 06:41 29.03927 -63.54695 38113 ft 403 kts 246°
2026-05-06 06:42 29.02180 -63.60778 38113 ft 404 kts 246°
2026-05-06 06:42 29.00426 -63.66878 38117 ft 404 kts 246°
2026-05-06 06:43 28.98669 -63.72979 38104 ft 404 kts 246°
2026-05-06 06:43 28.96907 -63.79081 38112 ft 405 kts 246°
2026-05-06 06:44 28.95142 -63.85184 38114 ft 405 kts 246°
2026-05-06 06:44 28.93372 -63.91295 38114 ft 405 kts 246°
2026-05-06 06:45 28.91599 -63.97400 38112 ft 405 kts 246°
2026-05-06 06:45 28.89823 -64.03508 38113 ft 405 kts 246°
2026-05-06 06:46 28.88057 -64.09568 38088 ft 405 kts 246°
2026-05-06 06:46 28.86273 -64.15676 38113 ft 406 kts 246°
2026-05-06 06:47 28.84487 -64.21782 38113 ft 406 kts 246°
2026-05-06 06:47 28.82696 -64.27891 38115 ft 406 kts 246°
2026-05-06 06:48 28.80904 -64.33996 38114 ft 406 kts 246°
2026-05-06 06:48 28.79107 -64.40103 38116 ft 407 kts 246°
2026-05-06 06:49 28.77301 -64.46228 38117 ft 408 kts 246°
2026-05-06 06:49 28.75490 -64.52363 38116 ft 408 kts 246°
2026-05-06 06:50 28.73678 -64.58489 38115 ft 408 kts 246°
2026-05-06 06:50 28.71863 -64.64616 38110 ft 408 kts 246°
2026-05-06 06:51 28.70040 -64.70752 38112 ft 409 kts 246°
2026-05-06 06:51 28.68215 -64.76886 38108 ft 409 kts 246°
2026-05-06 06:52 28.66400 -64.82977 38113 ft 409 kts 246°
2026-05-06 06:52 28.64570 -64.89107 38114 ft 409 kts 246°
2026-05-06 06:53 28.62737 -64.95234 38113 ft 409 kts 246°
2026-05-06 06:53 28.60898 -65.01365 38116 ft 411 kts 246°
2026-05-06 06:54 28.59043 -65.07540 38113 ft 413 kts 246°
2026-05-06 06:54 28.57179 -65.13738 38115 ft 414 kts 246°
2026-05-06 06:55 28.55313 -65.19933 38107 ft 414 kts 246°
2026-05-06 06:55 28.53439 -65.26138 38116 ft 415 kts 246°
2026-05-06 06:56 28.51559 -65.32348 38119 ft 416 kts 248°
2026-05-06 06:56 28.49669 -65.38585 38113 ft 418 kts 248°
2026-05-06 06:57 28.47771 -65.44837 38115 ft 418 kts 248°
2026-05-06 06:57 28.45871 -65.51086 38119 ft 418 kts 248°
2026-05-06 06:58 28.43981 -65.57289 38117 ft 418 kts 248°
2026-05-06 06:58 28.42073 -65.63538 38122 ft 419 kts 248°
2026-05-06 06:59 28.40160 -65.69794 38116 ft 420 kts 248°
2026-05-06 06:59 28.38237 -65.76065 38116 ft 420 kts 248°
2026-05-06 07:00 28.36313 -65.82329 38114 ft 420 kts 248°
2026-05-06 07:00 28.34388 -65.88588 38116 ft 420 kts 248°
2026-05-06 07:01 28.32461 -65.94841 38124 ft 420 kts 249°
2026-05-06 07:01 28.30535 -66.01077 38116 ft 423 kts 249°
2026-05-06 07:02 28.28589 -66.07370 38112 ft 423 kts 249°
2026-05-06 07:02 28.26637 -66.13670 38114 ft 423 kts 249°
2026-05-06 07:03 28.24681 -66.19971 38114 ft 423 kts 249°
2026-05-06 07:03 28.22723 -66.26264 38113 ft 423 kts 250°
2026-05-06 07:04 28.20757 -66.32570 38113 ft 425 kts 250°
2026-05-06 07:04 28.18785 -66.38888 38113 ft 425 kts 250°
2026-05-06 07:05 28.16810 -66.45206 38116 ft 425 kts 250°
2026-05-06 07:05 28.14830 -66.51526 38116 ft 425 kts 250°
2026-05-06 07:06 28.12846 -66.57845 38126 ft 426 kts 250°
2026-05-06 07:06 28.10858 -66.64165 38113 ft 427 kts 251°
2026-05-06 07:07 28.08874 -66.70462 38113 ft 428 kts 251°
2026-05-06 07:07 28.06872 -66.76805 38113 ft 428 kts 251°
2026-05-06 07:08 28.04870 -66.83139 38111 ft 427 kts 251°
2026-05-06 07:08 28.02865 -66.89468 38128 ft 427 kts 251°
2026-05-06 07:09 28.00857 -66.95793 38110 ft 427 kts 251°
2026-05-06 07:09 27.99171 -67.01098 38110 ft 428 kts 251°
2026-05-06 07:10 27.97168 -67.07390 38108 ft 428 kts 251°
2026-05-06 07:10 27.95150 -67.13714 38110 ft 428 kts 251°
2026-05-06 07:11 27.93127 -67.20046 38111 ft 428 kts 251°
2026-05-06 07:11 27.91100 -67.26374 38111 ft 428 kts 252°
2026-05-06 07:12 27.89067 -67.32714 38110 ft 429 kts 252°
2026-05-06 07:12 27.87031 -67.39050 38107 ft 428 kts 252°
2026-05-06 07:13 27.84997 -67.45369 38101 ft 427 kts 252°
2026-05-06 07:13 27.82962 -67.51680 38108 ft 427 kts 252°
2026-05-06 07:14 27.80922 -67.57994 38111 ft 428 kts 253°
2026-05-06 07:14 27.78874 -67.64324 38107 ft 429 kts 253°
2026-05-06 07:15 27.76822 -67.70656 38109 ft 430 kts 253°
2026-05-06 07:15 27.74763 -67.76996 38108 ft 430 kts 253°
2026-05-06 07:16 27.72717 -67.83283 38105 ft 430 kts 252°
2026-05-06 07:16 27.70654 -67.89612 38104 ft 430 kts 252°
2026-05-06 07:17 27.68586 -67.95947 38114 ft 430 kts 253°
2026-05-06 07:17 27.66520 -68.02265 38096 ft 429 kts 253°
2026-05-06 07:18 27.64451 -68.08580 38113 ft 429 kts 253°
2026-05-06 07:18 27.62376 -68.14901 38102 ft 429 kts 253°
2026-05-06 07:19 27.60300 -68.21215 38099 ft 430 kts 253°
2026-05-06 07:19 27.58216 -68.27541 38100 ft 431 kts 253°
2026-05-06 07:20 27.56128 -68.33872 38098 ft 431 kts 253°
2026-05-06 07:20 27.54035 -68.40205 38097 ft 431 kts 253°
2026-05-06 07:21 27.51940 -68.46534 38106 ft 431 kts 253°
2026-05-06 07:21 27.49843 -68.52858 38102 ft 431 kts 253°
2026-05-06 07:22 27.47739 -68.59192 38102 ft 432 kts 254°
2026-05-06 07:22 27.45643 -68.65494 38102 ft 433 kts 254°
2026-05-06 07:23 27.43527 -68.71841 38100 ft 433 kts 254°
2026-05-06 07:23 27.41408 -68.78186 38100 ft 433 kts 254°
2026-05-06 07:24 27.39286 -68.84528 38098 ft 433 kts 254°
2026-05-06 07:24 27.37159 -68.90878 38102 ft 434 kts 255°
2026-05-06 07:25 27.35022 -68.97248 38098 ft 435 kts 255°
2026-05-06 07:25 27.32880 -69.03617 38100 ft 436 kts 255°
2026-05-06 07:26 27.30736 -69.09977 38102 ft 434 kts 255°
2026-05-06 07:26 27.28594 -69.16326 38099 ft 434 kts 255°
2026-05-06 07:27 27.26450 -69.22668 38095 ft 435 kts 256°
2026-05-06 07:27 27.24298 -69.29030 38097 ft 436 kts 256°
2026-05-06 07:28 27.22135 -69.35402 38099 ft 436 kts 256°
2026-05-06 07:28 27.18887 -69.44956 38099 ft 436 kts 256°
2026-05-06 07:29 27.16718 -69.51321 38099 ft 437 kts 255°
2026-05-06 07:29 27.14559 -69.57648 38099 ft 438 kts 256°
2026-05-06 07:30 27.12363 -69.64073 38098 ft 438 kts 256°
2026-05-06 07:30 27.10195 -69.70399 38101 ft 436 kts 256°
2026-05-06 07:31 27.08015 -69.76754 38096 ft 437 kts 256°
2026-05-06 07:31 27.05830 -69.83112 38091 ft 437 kts 256°
2026-05-06 07:32 27.03643 -69.89468 38091 ft 437 kts 256°
2026-05-06 07:32 27.01450 -69.95830 38096 ft 437 kts 256°
2026-05-06 07:33 26.99338 -70.02214 38093 ft 435 kts 258°
2026-05-06 07:33 26.97548 -70.08675 38091 ft 433 kts 260°
2026-05-06 07:34 26.95835 -70.15157 38096 ft 433 kts 260°
2026-05-06 07:34 26.94095 -70.21632 38088 ft 434 kts 260°
2026-05-06 07:35 26.92328 -70.28097 38093 ft 434 kts 260°
2026-05-06 07:35 26.90549 -70.34563 38094 ft 434 kts 260°
2026-05-06 07:36 26.88768 -70.41017 38089 ft 434 kts 260°
2026-05-06 07:36 26.86994 -70.47441 38091 ft 434 kts 259°
2026-05-06 07:37 26.85207 -70.53899 38091 ft 434 kts 259°
2026-05-06 07:37 26.83417 -70.60359 38092 ft 435 kts 260°
2026-05-06 07:38 26.81621 -70.66831 38089 ft 435 kts 260°
2026-05-06 07:38 26.79821 -70.73303 38089 ft 435 kts 260°
2026-05-06 07:39 26.78018 -70.79769 38089 ft 435 kts 260°
2026-05-06 07:39 26.76213 -70.86234 38088 ft 435 kts 260°
2026-05-06 07:40 26.74404 -70.92700 38072 ft 436 kts 259°
2026-05-06 07:40 26.72588 -70.99182 38091 ft 437 kts 259°
2026-05-06 07:41 26.70764 -71.05676 38087 ft 437 kts 259°
2026-05-06 07:41 26.68938 -71.12164 38086 ft 437 kts 259°
2026-05-06 07:42 26.67108 -71.18649 38087 ft 437 kts 259°
2026-05-06 07:42 26.65276 -71.25136 38085 ft 437 kts 259°
2026-05-06 07:43 26.63441 -71.31618 38084 ft 437 kts 259°
2026-05-06 07:43 26.61603 -71.38100 38081 ft 438 kts 259°
2026-05-06 07:44 26.59773 -71.44540 38085 ft 438 kts 259°
2026-05-06 07:44 26.57929 -71.51017 38083 ft 438 kts 259°
2026-05-06 07:45 26.56080 -71.57498 38076 ft 438 kts 259°
2026-05-06 07:45 26.54227 -71.63980 38080 ft 438 kts 259°
2026-05-06 07:46 26.52369 -71.70466 38080 ft 438 kts 259°
2026-05-06 07:46 26.50510 -71.76945 38079 ft 438 kts 259°
2026-05-06 07:47 26.48647 -71.83426 38077 ft 438 kts 259°
2026-05-06 07:47 26.46780 -71.89908 38081 ft 438 kts 259°
2026-05-06 07:48 26.44911 -71.96384 38079 ft 439 kts 259°
2026-05-06 07:48 26.43038 -72.02861 38073 ft 439 kts 259°
2026-05-06 07:49 26.41161 -72.09340 38074 ft 439 kts 259°
2026-05-06 07:49 26.39282 -72.15812 38075 ft 439 kts 259°
2026-05-06 07:50 26.37399 -72.22286 38076 ft 439 kts 259°
2026-05-06 07:50 26.35513 -72.28759 38071 ft 439 kts 259°
2026-05-06 07:51 26.33623 -72.35237 38073 ft 440 kts 259°
2026-05-06 07:51 26.31723 -72.41731 38069 ft 441 kts 259°
2026-05-06 07:52 26.29832 -72.48185 38070 ft 441 kts 259°
2026-05-06 07:52 26.27926 -72.54675 38068 ft 441 kts 259°
2026-05-06 07:53 26.26015 -72.61171 38053 ft 441 kts 259°
2026-05-06 07:53 26.24101 -72.67674 38065 ft 442 kts 259°
2026-05-06 07:54 26.22180 -72.74181 38067 ft 443 kts 259°
2026-05-06 07:54 26.20253 -72.80693 38067 ft 443 kts 259°
2026-05-06 07:55 26.18324 -72.87201 38061 ft 443 kts 259°
2026-05-06 07:55 26.16393 -72.93709 38061 ft 443 kts 259°
2026-05-06 07:56 26.14457 -73.00228 38034 ft 444 kts 260°
2026-05-06 07:56 26.12512 -73.06763 38058 ft 445 kts 260°
2026-05-06 07:57 26.10560 -73.13301 38065 ft 445 kts 260°
2026-05-06 07:57 26.08605 -73.19842 38062 ft 445 kts 260°
2026-05-06 07:58 26.06978 -73.25273 38059 ft 445 kts 260°
2026-05-06 07:58 26.04701 -73.32867 38058 ft 446 kts 261°
2026-05-06 07:59 26.02737 -73.39406 38056 ft 446 kts 261°
2026-05-06 07:59 26.01086 -73.44889 38059 ft 446 kts 261°
2026-05-06 08:00 25.99113 -73.51430 38060 ft 446 kts 261°
2026-05-06 08:00 25.97150 -73.57930 38056 ft 446 kts 261°
2026-05-06 08:01 25.95171 -73.64467 38054 ft 447 kts 260°
2026-05-06 08:01 25.93189 -73.71004 38020 ft 446 kts 261°
2026-05-06 08:02 25.91463 -73.77580 38052 ft 442 kts 264°
2026-05-06 08:02 25.89993 -73.84193 38054 ft 441 kts 265°
2026-05-06 08:03 25.88535 -73.90807 38054 ft 441 kts 265°
2026-05-06 08:03 25.87040 -73.97416 38050 ft 442 kts 265°
2026-05-06 08:04 25.85521 -74.04026 38049 ft 442 kts 265°
2026-05-06 08:04 25.83994 -74.10634 38048 ft 442 kts 265°
2026-05-06 08:05 25.82466 -74.17237 38050 ft 442 kts 265°
2026-05-06 08:05 25.80936 -74.23843 38051 ft 442 kts 265°
2026-05-06 08:06 25.79403 -74.30451 38048 ft 442 kts 265°
2026-05-06 08:06 25.77866 -74.37055 38044 ft 442 kts 265°
2026-05-06 08:07 25.76326 -74.43655 38048 ft 441 kts 265°
2026-05-06 08:07 25.74788 -74.50240 38045 ft 441 kts 265°
2026-05-06 08:08 25.73243 -74.56834 38024 ft 441 kts 265°
2026-05-06 08:08 25.71697 -74.63428 38045 ft 443 kts 265°
2026-05-06 08:09 25.70143 -74.70036 38042 ft 443 kts 265°
2026-05-06 08:09 25.68585 -74.76645 38042 ft 443 kts 265°
2026-05-06 08:10 25.67034 -74.83208 38042 ft 443 kts 265°
2026-05-06 08:10 25.65469 -74.89813 38042 ft 443 kts 265°
2026-05-06 08:11 25.63902 -74.96420 38046 ft 443 kts 264°
2026-05-06 08:11 25.62331 -75.03025 38045 ft 443 kts 264°
2026-05-06 08:12 25.60757 -75.09629 38040 ft 443 kts 265°
2026-05-06 08:12 25.59182 -75.16215 38042 ft 442 kts 265°
2026-05-06 08:13 25.57607 -75.22795 38042 ft 442 kts 264°
2026-05-06 08:13 25.56032 -75.29369 38042 ft 442 kts 264°
2026-05-06 08:14 25.54452 -75.35949 38037 ft 442 kts 264°
2026-05-06 08:14 25.52869 -75.42525 38037 ft 442 kts 264°
2026-05-06 08:15 25.51283 -75.49102 38042 ft 442 kts 264°
2026-05-06 08:15 25.49692 -75.55685 38032 ft 443 kts 264°
2026-05-06 08:16 25.48108 -75.62219 38038 ft 443 kts 264°
2026-05-06 08:16 25.46511 -75.68798 38043 ft 443 kts 264°
2026-05-06 08:17 25.44911 -75.75372 38034 ft 443 kts 264°
2026-05-06 08:17 25.43307 -75.81952 38037 ft 443 kts 264°
2026-05-06 08:18 25.41699 -75.88532 38033 ft 443 kts 264°
2026-05-06 08:18 25.40088 -75.95111 38033 ft 443 kts 264°
2026-05-06 08:19 25.38472 -76.01693 38032 ft 443 kts 264°
2026-05-06 08:19 25.36855 -76.08271 38035 ft 443 kts 264°
2026-05-06 08:20 25.35234 -76.14850 38023 ft 443 kts 264°
2026-05-06 08:20 25.33610 -76.21429 38034 ft 444 kts 264°
2026-05-06 08:21 25.31982 -76.28007 38031 ft 444 kts 264°
2026-05-06 08:21 25.30349 -76.34593 38019 ft 444 kts 264°
2026-05-06 08:22 25.28712 -76.41187 38032 ft 446 kts 264°
2026-05-06 08:22 25.27069 -76.47787 38035 ft 446 kts 264°
2026-05-06 08:23 25.25420 -76.54395 38033 ft 446 kts 263°
2026-05-06 08:23 25.23767 -76.61007 38027 ft 447 kts 263°
2026-05-06 08:24 25.22108 -76.67626 38034 ft 447 kts 263°
2026-05-06 08:24 25.20460 -76.74190 38028 ft 447 kts 263°
2026-05-06 08:25 25.18797 -76.80801 38029 ft 447 kts 263°
2026-05-06 08:25 25.17131 -76.87408 38016 ft 447 kts 263°
2026-05-06 08:26 25.15460 -76.94024 38023 ft 448 kts 263°
2026-05-06 08:26 25.13783 -77.00647 38024 ft 448 kts 263°
2026-05-06 08:27 25.12104 -77.07266 38027 ft 448 kts 263°
2026-05-06 08:27 25.10422 -77.13884 38036 ft 448 kts 263°
2026-05-06 08:28 25.08737 -77.20501 38045 ft 448 kts 263°
2026-05-06 08:28 25.07047 -77.27127 38051 ft 450 kts 262°
2026-05-06 08:29 25.05349 -77.33774 38060 ft 451 kts 262°
2026-05-06 08:29 25.03641 -77.40438 38064 ft 451 kts 262°
2026-05-06 08:30 25.02525 -77.47132 38064 ft 439 kts 273°
2026-05-06 08:30 25.02153 -77.53831 38063 ft 438 kts 274°
2026-05-06 08:31 25.01842 -77.60484 38053 ft 438 kts 274°
2026-05-06 08:31 25.01531 -77.67196 38052 ft 439 kts 274°
2026-05-06 08:32 25.01219 -77.73912 38043 ft 439 kts 274°
2026-05-06 08:32 25.00903 -77.80632 38040 ft 439 kts 274°
2026-05-06 08:33 25.00584 -77.87357 38030 ft 439 kts 274°
2026-05-06 08:33 25.00263 -77.94074 38035 ft 439 kts 274°
2026-05-06 08:34 24.99775 -78.04166 38033 ft 440 kts 274°
2026-05-06 08:35 24.99447 -78.10865 38030 ft 440 kts 274°
2026-05-06 08:35 24.99106 -78.17609 38025 ft 441 kts 273°
2026-05-06 08:36 24.98593 -78.24358 38030 ft 442 kts 272°
2026-05-06 08:36 24.98043 -78.31114 38029 ft 442 kts 272°
2026-05-06 08:37 24.97493 -78.37873 38026 ft 442 kts 272°
2026-05-06 08:37 24.96942 -78.44625 38037 ft 442 kts 272°
2026-05-06 08:38 24.96389 -78.51382 38032 ft 442 kts 272°
2026-05-06 08:38 24.95833 -78.58136 38028 ft 443 kts 272°
2026-05-06 08:39 24.95666 -78.64842 38028 ft 432 kts 283°
2026-05-06 08:39 24.96571 -78.71354 38029 ft 430 kts 285°
2026-05-06 08:40 24.97552 -78.77819 38027 ft 430 kts 285°
2026-05-06 08:40 24.98524 -78.84326 38030 ft 430 kts 285°
2026-05-06 08:41 24.99489 -78.90834 38033 ft 430 kts 285°
2026-05-06 08:41 25.00450 -78.97347 38031 ft 430 kts 285°
2026-05-06 08:42 25.01407 -79.03858 37959 ft 432 kts 285°
2026-05-06 08:42 25.01882 -79.07105 37240 ft 427 kts 284°
2026-05-06 08:42 25.02467 -79.10305 35881 ft 425 kts 291°
2026-05-06 08:42 25.03623 -79.13301 34351 ft 427 kts 302°
2026-05-06 08:43 25.05206 -79.16107 32625 ft 435 kts 305°
2026-05-06 08:43 25.06903 -79.18911 30931 ft 442 kts 305°
2026-05-06 08:43 25.08625 -79.21743 29104 ft 446 kts 304°
2026-05-06 08:43 25.10355 -79.24604 27289 ft 449 kts 304°
2026-05-06 08:44 25.12078 -79.27466 25753 ft 445 kts 304°
2026-05-06 08:44 25.13775 -79.30295 24377 ft 439 kts 304°
2026-05-06 08:44 25.15444 -79.33082 23088 ft 431 kts 304°
2026-05-06 08:44 25.17047 -79.35765 22626 ft 403 kts 304°
2026-05-06 08:45 25.18519 -79.38231 22620 ft 368 kts 304°
2026-05-06 08:45 25.19870 -79.40498 22589 ft 339 kts 304°
2026-05-06 08:45 25.21131 -79.42613 22158 ft 324 kts 304°
2026-05-06 08:45 25.22378 -79.44699 21098 ft 329 kts 304°
2026-05-06 08:46 25.23662 -79.46848 19840 ft 341 kts 304°
2026-05-06 08:46 25.24981 -79.49059 19058 ft 344 kts 304°
2026-05-06 08:46 25.26285 -79.51248 18784 ft 339 kts 304°
2026-05-06 08:46 25.27569 -79.53405 18459 ft 336 kts 304°
2026-05-06 08:47 25.28832 -79.55529 18095 ft 334 kts 304°
2026-05-06 08:47 25.30106 -79.57669 17735 ft 332 kts 304°
2026-05-06 08:47 25.31375 -79.59803 17344 ft 331 kts 304°
2026-05-06 08:47 25.32635 -79.61923 16994 ft 329 kts 304°
2026-05-06 08:48 25.33888 -79.64032 16643 ft 327 kts 304°
2026-05-06 08:48 25.35134 -79.66130 16320 ft 326 kts 304°
2026-05-06 08:48 25.36374 -79.68220 15974 ft 324 kts 304°
2026-05-06 08:48 25.37604 -79.70293 15626 ft 323 kts 304°
2026-05-06 08:49 25.38846 -79.72360 15295 ft 321 kts 305°
2026-05-06 08:49 25.40118 -79.74373 14959 ft 319 kts 306°
2026-05-06 08:49 25.41406 -79.76381 14626 ft 318 kts 306°
2026-05-06 08:49 25.42252 -79.77697 14399 ft 317 kts 306°
2026-05-06 08:50 25.43956 -79.80348 13944 ft 315 kts 306°
2026-05-06 08:50 25.44793 -79.81653 13715 ft 313 kts 306°
2026-05-06 08:50 25.46050 -79.83611 13363 ft 311 kts 306°
2026-05-06 08:50 25.47300 -79.85560 13026 ft 310 kts 306°
2026-05-06 08:51 25.48545 -79.87503 12705 ft 309 kts 306°
2026-05-06 08:51 25.49786 -79.89439 12358 ft 307 kts 306°
2026-05-06 08:51 25.51020 -79.91365 12045 ft 306 kts 306°
2026-05-06 08:51 25.52249 -79.93285 11715 ft 305 kts 306°
2026-05-06 08:52 25.53470 -79.95193 11401 ft 303 kts 306°
2026-05-06 08:52 25.54662 -79.97057 11297 ft 290 kts 306°
2026-05-06 08:52 25.55806 -79.98848 11183 ft 279 kts 306°
2026-05-06 08:52 25.56912 -80.00578 11060 ft 271 kts 306°
2026-05-06 08:53 25.57989 -80.02263 10846 ft 267 kts 306°
2026-05-06 08:53 25.59058 -80.03938 10573 ft 266 kts 306°
2026-05-06 08:53 25.60123 -80.05605 10314 ft 264 kts 306°
2026-05-06 08:53 25.61180 -80.07261 10040 ft 263 kts 306°
2026-05-06 08:54 25.62236 -80.08917 9794 ft 263 kts 306°
2026-05-06 08:54 25.63288 -80.10564 9517 ft 262 kts 306°
2026-05-06 08:54 25.64339 -80.12213 9260 ft 261 kts 306°
2026-05-06 08:54 25.65350 -80.13894 9036 ft 267 kts 300°
2026-05-06 08:55 25.66232 -80.15774 8798 ft 280 kts 296°
2026-05-06 08:55 25.67066 -80.17725 8534 ft 281 kts 296°
2026-05-06 08:55 25.67882 -80.19661 8286 ft 280 kts 296°
2026-05-06 08:55 25.68706 -80.21614 8067 ft 279 kts 296°
2026-05-06 08:56 25.69531 -80.23564 7758 ft 279 kts 295°
2026-05-06 08:56 25.70353 -80.25504 7401 ft 278 kts 295°
2026-05-06 08:56 25.71039 -80.27496 7079 ft 277 kts 283°
2026-05-06 08:56 25.71192 -80.29617 6773 ft 276 kts 270°
2026-05-06 08:57 25.71114 -80.31742 6442 ft 276 kts 267°
2026-05-06 08:57 25.70999 -80.33860 6109 ft 275 kts 266°
2026-05-06 08:57 25.70885 -80.35973 5790 ft 274 kts 266°
2026-05-06 08:57 25.70776 -80.38081 5475 ft 273 kts 267°
2026-05-06 08:58 25.70673 -80.40173 5229 ft 269 kts 268°
2026-05-06 08:58 25.70805 -80.42184 5047 ft 256 kts 284°
2026-05-06 08:58 25.71553 -80.43885 4829 ft 239 kts 309°
2026-05-06 08:58 25.72762 -80.45027 4665 ft 220 kts 329°
2026-05-06 08:59 25.74123 -80.45624 4487 ft 204 kts 349°
2026-05-06 08:59 25.75484 -80.45611 4333 ft 189 kts 12°
2026-05-06 08:59 25.76650 -80.45071 4177 ft 176 kts 34°
2026-05-06 08:59 25.77473 -80.44131 3936 ft 170 kts 59°
2026-05-06 09:00 25.78081 -80.42990 3499 ft 175 kts 70°
2026-05-06 09:00 25.78275 -80.41653 3192 ft 173 kts 88°
2026-05-06 09:00 25.78307 -80.40355 3035 ft 164 kts 89°
2026-05-06 09:00 25.78237 -80.39115 2840 ft 160 kts 104°
2026-05-06 09:01 25.77654 -80.38114 2597 ft 160 kts 143°
2026-05-06 09:01 25.76602 -80.37834 2353 ft 160 kts 188°
2026-05-06 09:01 25.75678 -80.38480 2092 ft 162 kts 234°
2026-05-06 09:01 25.75380 -80.39675 1835 ft 163 kts 267°
2026-05-06 09:02 25.75401 -80.40931 1611 ft 163 kts 273°
2026-05-06 09:02 25.75467 -80.42181 1503 ft 163 kts 273°
2026-05-06 09:02 25.75524 -80.43440 1501 ft 163 kts 272°
2026-05-06 09:02 25.75666 -80.44706 1502 ft 167 kts 287°
2026-05-06 09:03 25.76314 -80.45707 1486 ft 161 kts 333°
2026-05-06 09:03 25.77404 -80.45735 1496 ft 160 kts 29°
2026-05-06 09:03 25.78055 -80.44814 1507 ft 156 kts 73°
2026-05-06 09:03 25.78180 -80.43641 1499 ft 152 kts 89°
2026-05-06 09:04 25.78185 -80.42471 1499 ft 152 kts 90°
2026-05-06 09:04 25.78205 -80.41289 1508 ft 158 kts 88°
2026-05-06 09:04 25.78252 -80.40080 1495 ft 155 kts 88°
2026-05-06 09:04 25.78302 -80.38898 1405 ft 150 kts 88°
2026-05-06 09:05 25.78346 -80.37783 1234 ft 138 kts 90°
2026-05-06 09:05 25.78378 -80.36761 1026 ft 129 kts 89°
2026-05-06 09:05 25.78422 -80.35781 908 ft 128 kts 88°
2026-05-06 09:05 25.78477 -80.34791 686 ft 129 kts 89°
2026-05-06 09:06 25.78516 -80.33809 523 ft 130 kts 90°
2026-05-06 09:06 25.78558 -80.32811 360 ft 130 kts 90°
2026-05-06 09:06 25.78596 -80.31802 179 ft 131 kts 90°
2026-05-06 09:06 25.78642 -80.30795 33 ft 129 kts 90°
2026-05-06 09:07 25.78674 -80.29913 17 ft 93 kts 86°
2026-05-06 09:07 25.78696 -80.29421 18 ft 35 kts 88°
2026-05-06 09:07 25.78731 -80.29243 20 ft 20 kts 63°
2026-05-06 09:07 25.78821 -80.29169 18 ft 16 kts
2026-05-06 09:08 25.78897 -80.29127 18 ft 12 kts 66°
2026-05-06 09:08 25.78909 -80.29034 19 ft 12 kts 77°
2026-05-06 09:08 25.78929 -80.28949 20 ft 12 kts 76°
2026-05-06 09:08 25.78946 -80.28862 18 ft 12 kts 84°
2026-05-06 09:09 25.78950 -80.28777 18 ft 11 kts 87°
2026-05-06 09:09 25.78952 -80.28736 18 ft 1 kts 87°
2026-05-06 09:09 25.78955 -80.28719 18 ft 4 kts 72°
2026-05-06 09:09 25.79007 -80.28691 18 ft 13 kts
2026-05-06 09:10 25.79109 -80.28694 18 ft 16 kts
2026-05-06 09:10 25.79211 -80.28641 20 ft 17 kts 29°
2026-05-06 09:10 25.79316 -80.28578 19 ft 17 kts 20°
2026-05-06 09:10 25.79419 -80.28573 19 ft 9 kts 358°
2026-05-06 09:11 25.79437 -80.28570 19 ft 1 kts 17°
2026-05-06 09:11 25.79444 -80.28556 19 ft 1 kts 71°
2026-05-06 09:11 25.79447 -80.28527 21 ft 3 kts 79°
2026-05-06 09:11 25.79455 -80.28494 19 ft 5 kts 72°
2026-05-06 09:12 25.79459 -80.28481 19 ft 2 kts 73°
2026-05-06 09:12 25.79461 -80.28472 21 ft 0 kts 73°